, NV

(GMT )
Eureka Airport

Weather History for K05U - February, 2013

Change the Weather History Date:

Wednesday, February 20, 2013

  Actual Average Record
Temperature  
Mean Temperature 16 °F -  
Max Temperature 32 °F - - ()
Min Temperature 1 °F - - ()
Degree Days  
Heating Degree Days 48    
Moisture  
Dew Point 16 °F    
Average Humidity 80    
Maximum Humidity 93    
Minimum Humidity 51    
Precipitation  
Precipitation 0.01 in - - ()
Sea Level Pressure  
Sea Level Pressure 29.74 in    
Wind  
Wind Speed 6 mph (North)    
Max Wind Speed 16 mph    
Max Gust Speed 21 mph    
Visibility 6 miles    
Events      
Averages and records for this station are not official NWS values.
T = Trace of Precipitation, MM = Missing Value Source: NWS Daily Summary

Daily Weather History Graph

Daily Weather History Graph

Search for Another Location

Airport or City:

Trip Planner

Search our weather history database for the weather conditions in past years. The results will help you decide how hot, cold, wet, or windy it might be!

Date:

Astronomy

Feb. 20, 2013 Rise Set
Actual Time 6:29 AM PST 5:26 PM PST
Civil Twilight 6:01 AM PST 5:53 PM PST
Nautical Twilight 5:30 AM PST 6:25 PM PST
Astronomical Twilight 4:59 AM PST 6:56 PM PST
Moon 12:52 PM PST (2/20) 2:52 AM PST (2/20)
Length of Visible Light 11h 52m
Length of Day
10h 57m
Waxing Gibbous, 77% of the Moon is Illuminated
Feb 20
Waxing Gibbous
Feb 25
Full
Mar 4
Last Quarter
Mar 11
New
Mar 19
First Quarter

Hourly Weather History & Observations

Time (PST) Temp. Windchill Dew Point Humidity Pressure Visibility Wind Dir Wind Speed Gust Speed Precip Events Conditions
12:10 AM 26.6 °F - 24.8 °F 93% 29.56 in 3.0 mi Calm Calm - N/A   Overcast
12:30 AM 26.6 °F 22.6 °F 24.8 °F 93% 29.56 in 4.0 mi NE 3.5 mph - N/A   Overcast
12:50 AM 26.6 °F - 24.8 °F 93% 29.56 in 7.0 mi Calm Calm - N/A   Overcast
1:10 AM 26.6 °F - 24.8 °F 93% 29.56 in 2.5 mi Calm Calm - N/A   Overcast
1:30 AM 26.6 °F 20.0 °F 24.8 °F 93% 29.56 in 1.0 mi NNE 5.8 mph - N/A   Overcast
1:50 AM 26.6 °F 22.6 °F 24.8 °F 93% 29.56 in 1.0 mi NE 3.5 mph - N/A   Overcast
2:30 AM 26.6 °F - 24.8 °F 93% 29.56 in 1.2 mi Calm Calm - N/A   Overcast
3:10 AM 26.6 °F - 24.8 °F 93% 29.56 in 1.2 mi Calm Calm - N/A   Overcast
3:30 AM 26.6 °F - 24.8 °F 93% 29.57 in 1.2 mi Calm Calm - N/A   Overcast
4:10 AM 26.6 °F - 24.8 °F 93% 29.58 in 1.0 mi Calm Calm - N/A   Overcast
4:30 AM 26.6 °F - 24.8 °F 93% 29.59 in 0.5 mi Calm Calm - N/A   Overcast
4:50 AM 26.6 °F 19.1 °F 24.8 °F 93% 29.59 in 1.2 mi North 6.9 mph - N/A   Overcast
5:10 AM 26.6 °F 16.8 °F 24.8 °F 93% 29.60 in 1.0 mi North 10.4 mph 16.1 mph N/A   Overcast
5:30 AM 26.6 °F 17.5 °F 24.8 °F 93% 29.60 in 0.8 mi North 9.2 mph - N/A   Overcast
5:50 AM 26.6 °F 16.2 °F 24.8 °F 93% 29.61 in 0.8 mi North 11.5 mph - N/A   Overcast
6:10 AM 26.6 °F 16.8 °F 24.8 °F 93% 29.62 in 1.5 mi North 10.4 mph - N/A   Overcast
6:30 AM 26.6 °F 16.2 °F 23.0 °F 86% 29.63 in 1.2 mi North 11.5 mph - N/A   Overcast
6:50 AM 26.6 °F 18.2 °F 23.0 °F 86% 29.64 in 2.0 mi North 8.1 mph - N/A   Overcast
7:10 AM 26.6 °F 16.2 °F 24.8 °F 93% 29.66 in 0.5 mi North 11.5 mph 16.1 mph N/A   Overcast
7:30 AM 26.6 °F 16.2 °F 24.8 °F 93% 29.67 in 0.5 mi North 11.5 mph - N/A   Overcast
7:50 AM 26.6 °F 15.7 °F 23.0 °F 86% 29.68 in 0.5 mi North 12.7 mph 17.3 mph N/A   Overcast
8:10 AM 26.6 °F 15.7 °F 23.0 °F 86% 29.69 in 2.5 mi North 12.7 mph 18.4 mph N/A   Scattered Clouds
8:30 AM 26.6 °F 16.2 °F 23.0 °F 86% 29.70 in 3.0 mi North 11.5 mph - N/A   Partly Cloudy
8:50 AM 26.6 °F 16.8 °F 23.0 °F 86% 29.71 in 1.2 mi North 10.4 mph - N/A   Mostly Cloudy
9:10 AM 26.6 °F 14.7 °F 23.0 °F 86% 29.72 in 2.5 mi North 15.0 mph - N/A   Mostly Cloudy
9:30 AM 26.6 °F 14.7 °F 23.0 °F 86% 29.72 in 5.0 mi North 15.0 mph 19.6 mph N/A   Overcast
9:50 AM 28.4 °F 18.5 °F 23.0 °F 80% 29.73 in 3.0 mi North 11.5 mph - N/A   Overcast
10:10 AM 28.4 °F 21.2 °F 23.0 °F 80% 29.75 in 5.0 mi North 6.9 mph - N/A   Overcast
10:30 AM 32.0 °F 24.2 °F 23.0 °F 69% 29.75 in 3.0 mi North 9.2 mph - N/A   Mostly Cloudy
10:50 AM 30.2 °F 22.6 °F 19.4 °F 64% 29.76 in 10.0 mi NNE 8.1 mph - N/A   Mostly Cloudy
11:10 AM 32.0 °F 24.2 °F 21.2 °F 64% 29.76 in 7.0 mi NNE 9.2 mph - N/A   Mostly Cloudy
11:30 AM 32.0 °F 23.0 °F 21.2 °F 64% 29.77 in 10.0 mi NNE 11.5 mph - N/A   Overcast
11:50 AM 32.0 °F 22.5 °F 19.4 °F 60% 29.77 in 10.0 mi North 12.7 mph - N/A   Mostly Cloudy
12:10 PM 32.0 °F 21.6 °F 19.4 °F 60% 29.77 in 10.0 mi North 15.0 mph - N/A   Overcast
12:50 PM 32.0 °F 22.5 °F 17.6 °F 55% 29.77 in 10.0 mi North 12.7 mph - N/A   Mostly Cloudy
1:10 PM 32.0 °F 23.0 °F 17.6 °F 55% 29.78 in 10.0 mi North 11.5 mph - N/A   Overcast
1:30 PM 32.0 °F 23.0 °F 19.4 °F 60% 29.78 in 10.0 mi NNE 11.5 mph - N/A   Overcast
1:50 PM 32.0 °F 22.1 °F 15.8 °F 51% 29.78 in 10.0 mi North 13.8 mph - 0.01 in   Scattered Clouds
2:10 PM 32.0 °F 22.5 °F 17.6 °F 55% 29.79 in 10.0 mi North 12.7 mph - N/A   Clear
2:30 PM 32.0 °F 21.2 °F 17.6 °F 55% 29.79 in 10.0 mi North 16.1 mph 20.7 mph N/A   Clear
2:50 PM 32.0 °F 22.1 °F 17.6 °F 55% 29.79 in 10.0 mi North 13.8 mph 17.3 mph N/A   Clear
3:10 PM 32.0 °F 22.1 °F 17.6 °F 55% 29.80 in 10.0 mi North 13.8 mph 19.6 mph N/A   Clear
3:50 PM 30.2 °F 22.6 °F 17.6 °F 60% 29.81 in 10.0 mi NNE 8.1 mph - N/A   Clear
4:10 PM 28.4 °F 21.2 °F 17.6 °F 64% 29.81 in 10.0 mi NNE 6.9 mph - N/A   Clear
4:30 PM 26.6 °F 20.0 °F 17.6 °F 69% 29.82 in 10.0 mi NNE 5.8 mph - N/A   Clear
4:50 PM 26.6 °F 19.1 °F 15.8 °F 64% 29.83 in 10.0 mi NNE 6.9 mph - N/A   Clear
5:30 PM 19.4 °F 11.5 °F 14.0 °F 80% 29.84 in 10.0 mi NE 5.8 mph - N/A   Clear
5:50 PM 17.6 °F 12.3 °F 10.4 °F 73% 29.84 in 10.0 mi North 3.5 mph - N/A   Clear
6:10 PM 12.2 °F - 8.6 °F 85% 29.85 in 10.0 mi Calm Calm - N/A   Clear
6:30 PM 10.4 °F 4.0 °F 6.8 °F 85% 29.86 in 10.0 mi SSW 3.5 mph - N/A   Clear
6:50 PM 10.4 °F 0.8 °F 6.8 °F 85% 29.86 in 10.0 mi SSW 5.8 mph - N/A   Clear
7:30 PM 5.0 °F -8.1 °F 1.4 °F 85% 29.88 in 10.0 mi SSW 8.1 mph - N/A   Scattered Clouds
7:50 PM 6.8 °F -5.9 °F 1.4 °F 79% 29.88 in 10.0 mi SSW 8.1 mph - N/A   Scattered Clouds
8:10 PM 3.2 °F -4.2 °F -0.4 °F 85% 29.88 in 10.0 mi South 3.5 mph - N/A   Clear
8:30 PM 5.0 °F -5.6 °F 1.4 °F 85% 29.88 in 10.0 mi ESE 5.8 mph - N/A   Clear
8:50 PM 6.8 °F -3.5 °F 3.2 °F 85% 29.89 in 10.0 mi SSE 5.8 mph - N/A   Clear
9:10 PM 6.8 °F -0.1 °F 3.2 °F 85% 29.89 in 10.0 mi East 3.5 mph - N/A   Clear
9:30 PM 1.4 °F -6.2 °F -0.4 °F 92% 29.90 in 10.0 mi SW 3.5 mph - N/A   Clear
9:50 PM 1.4 °F - -0.4 °F 92% 29.90 in 10.0 mi Calm Calm - N/A   Clear
10:10 PM 5.0 °F -6.9 °F 1.4 °F 85% 29.90 in 10.0 mi SSW 6.9 mph - N/A   Clear
10:30 PM 5.0 °F - -0.4 °F 78% 29.90 in 10.0 mi Calm Calm - N/A   Clear
10:50 PM 1.4 °F -12.5 °F -2.2 °F 85% 29.89 in 10.0 mi SSW 8.1 mph - N/A   Clear
11:10 PM 6.8 °F -2.0 °F 1.4 °F 79% 29.89 in 10.0 mi SSW 4.6 mph - N/A   Clear
11:30 PM 5.0 °F -6.9 °F -0.4 °F 78% 29.89 in 10.0 mi SSW 6.9 mph - N/A   Clear
11:50 PM 3.2 °F -7.8 °F -0.4 °F 85% 29.89 in 10.0 mi SSE 5.8 mph - N/A   Clear